Time,TemperatureF,DewpointF,PressureIn,WindDirection,WindDirectionDegrees,WindSpeedMPH,WindSpeedGustMPH,Humidity,HourlyPrecipIn,Conditions,Clouds,dailyrainin,SoftwareType,DateUTC
2013-08-02 00:00:00,59.0,55.0,29.95,NNW,336,0.0,0.0,88,0.00,,,0.01,,2013-08-02 04:00:00,
2013-08-02 00:02:00,59.0,56.0,29.95,NNW,336,0.0,0.0,89,0.00,,,0.01,,2013-08-02 04:02:00,
2013-08-02 00:22:00,58.0,55.0,29.95,NNW,336,0.0,0.0,91,0.00,,,0.01,,2013-08-02 04:22:00,
2013-08-02 00:33:00,57.0,55.0,29.96,NNW,336,0.0,0.0,92,0.00,,,0.01,,2013-08-02 04:33:00,
2013-08-02 00:43:00,57.0,55.0,29.96,NNW,336,0.0,0.0,93,0.00,,,0.01,,2013-08-02 04:43:00,
2013-08-02 00:53:00,57.0,55.0,29.96,NNW,336,0.0,0.0,93,0.00,,,0.01,,2013-08-02 04:53:00,
2013-08-02 01:02:00,57.0,55.0,29.96,NNW,336,0.0,0.0,93,0.00,,,0.01,,2013-08-02 05:02:00,
2013-08-02 01:12:00,57.0,55.0,29.96,NNW,336,0.0,0.0,93,0.00,,,0.01,,2013-08-02 05:12:00,
2013-08-02 01:22:00,57.0,55.0,29.95,NNW,336,0.0,0.0,93,0.00,,,0.01,,2013-08-02 05:22:00,
2013-08-02 01:32:00,57.0,55.0,29.94,NNW,336,0.0,0.0,93,0.00,,,0.01,,2013-08-02 05:32:00,
2013-08-02 01:43:00,57.0,55.0,29.94,NNW,336,0.0,0.0,93,0.00,,,0.01,,2013-08-02 05:43:00,
2013-08-02 01:53:00,56.0,54.0,29.94,NNW,336,0.0,0.0,92,0.00,,,0.01,,2013-08-02 05:53:00,
2013-08-02 02:02:00,56.0,54.0,29.94,NNW,336,0.0,0.0,93,0.00,,,0.01,,2013-08-02 06:02:00,
2013-08-02 02:12:00,56.0,54.0,29.94,NNW,336,0.0,0.0,93,0.00,,,0.01,,2013-08-02 06:12:00,
2013-08-02 02:22:00,56.0,54.0,29.93,NNW,336,0.0,0.0,93,0.00,,,0.01,,2013-08-02 06:22:00,
2013-08-02 02:33:00,56.0,54.0,29.93,NNW,336,0.0,0.0,93,0.00,,,0.01,,2013-08-02 06:33:00,
2013-08-02 02:43:00,56.0,54.0,29.93,NNW,336,0.0,0.0,93,0.00,,,0.01,,2013-08-02 06:43:00,
2013-08-02 02:52:00,56.0,54.0,29.92,NNW,336,0.0,0.0,93,0.00,,,0.01,,2013-08-02 06:52:00,
2013-08-02 03:02:00,56.0,54.0,29.92,NNW,336,0.0,0.0,93,0.00,,,0.01,,2013-08-02 07:02:00,
2013-08-02 03:12:00,56.0,54.0,29.92,NNW,336,0.0,0.0,93,0.00,,,0.01,,2013-08-02 07:12:00,
2013-08-02 03:22:00,56.0,54.0,29.93,NNW,336,0.0,0.0,93,0.00,,,0.01,,2013-08-02 07:22:00,
2013-08-02 03:33:00,56.0,54.0,29.92,NNW,336,0.0,0.0,93,0.00,,,0.01,,2013-08-02 07:33:00,
2013-08-02 03:44:00,56.0,54.0,29.92,NNW,336,0.0,0.0,93,0.00,,,0.01,,2013-08-02 07:44:00,
2013-08-02 03:53:00,56.0,54.0,29.92,NNW,336,0.0,0.0,93,0.00,,,0.01,,2013-08-02 07:53:00,
2013-08-02 04:02:00,56.0,54.0,29.91,NNW,336,0.0,0.0,93,0.00,,,0.01,,2013-08-02 08:02:00,
2013-08-02 04:12:00,56.0,54.0,29.91,NNW,336,0.0,0.0,93,0.00,,,0.01,,2013-08-02 08:12:00,
2013-08-02 04:22:00,56.0,54.0,29.91,NNW,336,0.0,0.0,92,0.00,,,0.01,,2013-08-02 08:22:00,
2013-08-02 04:33:00,55.0,53.0,29.92,NNW,336,0.0,0.0,93,0.00,,,0.01,,2013-08-02 08:33:00,
2013-08-02 04:43:00,55.0,53.0,29.92,NNW,336,0.0,0.0,93,0.00,,,0.01,,2013-08-02 08:43:00,
2013-08-02 04:54:00,55.0,53.0,29.92,NNW,336,0.0,0.0,93,0.00,,,0.01,,2013-08-02 08:54:00,
2013-08-02 05:02:00,56.0,54.0,29.92,NNW,336,0.0,0.0,93,0.00,,,0.01,,2013-08-02 09:02:00,
2013-08-02 05:12:00,56.0,54.0,29.92,NNW,336,0.0,0.0,93,0.00,,,0.01,,2013-08-02 09:12:00,
2013-08-02 05:23:00,56.0,54.0,29.92,NNW,336,0.0,0.0,93,0.00,,,0.01,,2013-08-02 09:23:00,
2013-08-02 05:33:00,56.0,54.0,29.92,NNW,336,0.0,0.0,93,0.00,,,0.01,,2013-08-02 09:33:00,
2013-08-02 05:44:00,57.0,55.0,29.93,NNW,336,0.0,0.0,92,0.00,,,0.01,,2013-08-02 09:44:00,
2013-08-02 05:53:00,57.0,55.0,29.92,ESE,116,0.0,0.0,92,0.00,,,0.01,,2013-08-02 09:53:00,
2013-08-02 06:03:00,57.0,55.0,29.92,SE,138,0.0,0.0,92,0.01,,,0.02,,2013-08-02 10:03:00,
2013-08-02 06:12:00,57.0,55.0,29.92,SE,138,0.0,0.0,92,0.01,,,0.02,,2013-08-02 10:12:00,
2013-08-02 06:23:00,58.0,56.0,29.93,SE,138,0.0,0.0,92,0.01,,,0.02,,2013-08-02 10:23:00,
2013-08-02 06:33:00,58.0,56.0,29.93,SE,138,0.0,0.0,92,0.01,,,0.02,,2013-08-02 10:33:00,
2013-08-02 06:43:00,58.0,56.0,29.93,SSE,154,0.0,3.0,92,0.03,,,0.04,,2013-08-02 10:43:00,
2013-08-02 06:52:00,58.0,56.0,29.93,SSE,149,0.0,3.0,92,0.04,,,0.05,,2013-08-02 10:52:00,
2013-08-02 07:02:00,58.0,56.0,29.93,SSE,149,0.0,3.0,92,0.04,,,0.05,,2013-08-02 11:02:00,
2013-08-02 07:12:00,58.0,56.0,29.93,SSE,149,0.0,1.0,93,0.04,,,0.06,,2013-08-02 11:12:00,
2013-08-02 07:22:00,58.0,56.0,29.92,SSE,148,1.0,3.0,93,0.06,,,0.08,,2013-08-02 11:22:00,
2013-08-02 07:43:00,58.0,56.0,29.92,SE,128,1.0,3.0,94,0.04,,,0.09,,2013-08-02 11:43:00,
2013-08-02 07:52:00,59.0,58.0,29.92,SE,145,0.0,3.0,95,0.04,,,0.09,,2013-08-02 11:52:00,
2013-08-02 08:02:00,59.0,58.0,29.92,SE,145,0.0,3.0,95,0.04,,,0.09,,2013-08-02 12:02:00,
2013-08-02 08:12:00,59.0,58.0,29.91,ESE,120,1.0,3.0,95,0.04,,,0.10,,2013-08-02 12:12:00,
2013-08-02 08:22:00,60.0,59.0,29.90,SSE,150,1.0,4.0,95,0.03,,,0.10,,2013-08-02 12:22:00,
2013-08-02 08:32:00,60.0,59.0,29.90,SE,137,0.0,3.0,96,0.05,,,0.13,,2013-08-02 12:32:00,
2013-08-02 08:43:00,60.0,59.0,29.90,SE,137,0.0,3.0,96,0.05,,,0.13,,2013-08-02 12:43:00,
2013-08-02 08:52:00,60.0,59.0,29.90,SSE,150,0.0,3.0,95,0.05,,,0.13,,2013-08-02 12:52:00,
2013-08-02 09:03:00,61.0,60.0,29.91,SSE,150,0.0,2.0,95,0.05,,,0.14,,2013-08-02 13:03:00,
2013-08-02 09:12:00,61.0,60.0,29.91,SSE,150,0.0,2.0,95,0.05,,,0.14,,2013-08-02 13:12:00,
2013-08-02 09:22:00,61.0,60.0,29.92,NE,44,0.0,2.0,95,0.04,,,0.14,,2013-08-02 13:22:00,
2013-08-02 09:33:00,61.0,60.0,29.93,NE,55,0.0,1.0,95,0.06,,,0.19,,2013-08-02 13:33:00,
2013-08-02 09:43:00,61.0,60.0,29.93,NE,55,0.0,1.0,95,0.06,,,0.19,,2013-08-02 13:43:00,
2013-08-02 09:52:00,61.0,60.0,29.94,East,80,0.0,1.0,95,0.12,,,0.25,,2013-08-02 13:52:00,
2013-08-02 10:02:00,61.0,60.0,29.94,East,80,0.0,1.0,96,0.12,,,0.26,,2013-08-02 14:02:00,
2013-08-02 10:12:00,61.0,60.0,29.94,East,80,0.0,1.0,96,0.12,,,0.26,,2013-08-02 14:12:00,
2013-08-02 10:22:00,61.0,60.0,29.94,SE,142,1.0,3.0,95,0.13,,,0.27,,2013-08-02 14:22:00,
2013-08-02 10:32:00,61.0,60.0,29.95,SE,142,1.0,3.0,95,0.13,,,0.33,,2013-08-02 14:32:00,
2013-08-02 10:43:00,61.0,60.0,29.95,SE,142,1.0,3.0,95,0.13,,,0.33,,2013-08-02 14:43:00,
2013-08-02 10:53:00,61.0,60.0,29.94,ESE,123,2.0,3.0,95,0.10,,,0.35,,2013-08-02 14:53:00,
2013-08-02 11:03:00,62.0,61.0,29.93,ESE,108,2.0,6.0,96,0.09,,,0.35,,2013-08-02 15:03:00,
2013-08-02 11:12:00,62.0,61.0,29.93,ESE,108,2.0,6.0,96,0.09,,,0.35,,2013-08-02 15:12:00,
2013-08-02 11:22:00,63.0,62.0,29.92,SE,140,4.0,7.0,95,0.08,,,0.35,,2013-08-02 15:22:00,
2013-08-02 11:32:00,64.0,62.0,29.91,SSE,159,3.0,9.0,92,0.02,,,0.35,,2013-08-02 15:32:00,
2013-08-02 11:43:00,64.0,62.0,29.91,SSE,159,3.0,9.0,92,0.02,,,0.35,,2013-08-02 15:43:00,
2013-08-02 11:53:00,66.0,63.0,29.91,SSE,148,3.0,9.0,89,0.00,,,0.35,,2013-08-02 15:53:00,
2013-08-02 12:02:00,67.0,63.0,29.91,ESE,117,3.0,11.0,88,0.00,,,0.35,,2013-08-02 16:02:00,
2013-08-02 12:12:00,67.0,63.0,29.91,ESE,117,3.0,11.0,88,0.00,,,0.35,,2013-08-02 16:12:00,
2013-08-02 12:22:00,67.0,63.0,29.91,ESE,117,3.0,11.0,88,0.00,,,0.35,,2013-08-02 16:22:00,
2013-08-02 12:32:00,66.0,63.0,29.90,SSE,156,2.0,6.0,89,0.00,,,0.35,,2013-08-02 16:32:00,
2013-08-02 12:43:00,66.0,63.0,29.90,SSE,156,2.0,6.0,89,0.00,,,0.35,,2013-08-02 16:43:00,
2013-08-02 12:53:00,66.0,62.0,29.91,SW,227,5.0,10.0,88,0.00,,,0.35,,2013-08-02 16:53:00,
2013-08-02 13:02:00,66.0,63.0,29.89,SSW,194,2.0,10.0,90,0.00,,,0.35,,2013-08-02 17:02:00,
2013-08-02 13:12:00,66.0,63.0,29.89,SSW,194,2.0,10.0,90,0.00,,,0.35,,2013-08-02 17:12:00,
2013-08-02 13:22:00,68.0,64.0,29.89,SE,140,3.0,7.0,88,0.00,,,0.35,,2013-08-02 17:22:00,
2013-08-02 13:35:00,68.0,64.0,29.89,SE,140,3.0,7.0,88,0.00,,,0.35,,2013-08-02 17:35:00,
2013-08-02 13:43:00,69.0,65.0,29.88,SE,131,4.0,9.0,86,0.00,,,0.35,,2013-08-02 17:43:00,
2013-08-02 13:52:00,70.0,65.0,29.88,East,92,3.0,8.0,85,0.00,,,0.35,,2013-08-02 17:52:00,
2013-08-02 14:12:00,72.0,65.0,29.87,SSE,157,3.0,10.0,80,0.00,,,0.35,,2013-08-02 18:12:00,
2013-08-02 14:32:00,73.0,66.0,29.87,ESE,122,4.0,8.0,78,0.00,,,0.35,,2013-08-02 18:32:00,
2013-08-02 14:43:00,74.0,67.0,29.87,SE,141,4.0,9.0,78,0.00,,,0.35,,2013-08-02 18:43:00,
2013-08-02 14:52:00,75.0,68.0,29.87,SE,129,2.0,7.0,79,0.00,,,0.35,,2013-08-02 18:52:00,
2013-08-02 15:02:00,75.0,68.0,29.87,SE,129,2.0,7.0,79,0.00,,,0.35,,2013-08-02 19:02:00,
2013-08-02 15:12:00,76.0,68.0,29.87,ESE,117,3.0,9.0,77,0.00,,,0.35,,2013-08-02 19:12:00,
2013-08-02 15:22:00,77.0,69.0,29.87,ESE,123,2.0,7.0,77,0.00,,,0.35,,2013-08-02 19:22:00,
2013-08-02 15:43:00,78.0,69.0,29.87,East,101,1.0,7.0,75,0.00,,,0.35,,2013-08-02 19:43:00,
2013-08-02 15:52:00,80.0,70.0,29.87,NNW,340,2.0,6.0,72,0.00,,,0.35,,2013-08-02 19:52:00,
2013-08-02 16:02:00,80.0,70.0,29.87,NNW,340,2.0,6.0,72,0.00,,,0.35,,2013-08-02 20:02:00,
2013-08-02 16:12:00,80.0,70.0,29.87,NNW,340,2.0,6.0,72,0.00,,,0.35,,2013-08-02 20:12:00,
2013-08-02 16:23:00,80.0,70.0,29.85,SE,126,0.0,3.0,72,0.00,,,0.35,,2013-08-02 20:23:00,
2013-08-02 16:43:00,79.0,70.0,29.85,SSE,158,0.0,2.0,73,0.00,,,0.35,,2013-08-02 20:43:00,
2013-08-02 16:52:00,78.0,70.0,29.84,NNW,339,0.0,1.0,77,0.00,,,0.35,,2013-08-02 20:52:00,
2013-08-02 17:03:00,78.0,71.0,29.83,NNW,339,0.0,0.0,80,0.01,,,0.36,,2013-08-02 21:03:00,
2013-08-02 17:12:00,78.0,71.0,29.83,NNW,339,0.0,0.0,80,0.01,,,0.36,,2013-08-02 21:12:00,
2013-08-02 17:32:00,76.0,70.0,29.83,SW,230,0.0,3.0,83,0.02,,,0.37,,2013-08-02 21:32:00,
2013-08-02 17:43:00,76.0,70.0,29.83,SW,230,0.0,3.0,83,0.02,,,0.37,,2013-08-02 21:43:00,
2013-08-02 17:53:00,72.0,69.0,29.84,SE,138,0.0,2.0,89,0.04,,,0.39,,2013-08-02 21:53:00,
2013-08-02 18:02:00,72.0,69.0,29.85,South,178,0.0,3.0,90,0.03,,,0.39,,2013-08-02 22:02:00,
2013-08-02 18:12:00,72.0,69.0,29.85,South,178,0.0,3.0,90,0.03,,,0.39,,2013-08-02 22:12:00,
2013-08-02 18:32:00,73.0,70.0,29.84,SSW,202,0.0,1.0,91,0.02,,,0.39,,2013-08-02 22:32:00,
2013-08-02 18:43:00,74.0,71.0,29.84,NW,323,0.0,3.0,91,0.00,,,0.39,,2013-08-02 22:43:00,
2013-08-02 18:52:00,74.0,70.0,29.84,NW,319,0.0,3.0,86,0.00,,,0.39,,2013-08-02 22:52:00,
2013-08-02 19:02:00,75.0,69.0,29.84,NNW,328,3.0,5.0,83,0.00,,,0.39,,2013-08-02 23:02:00,
2013-08-02 19:12:00,75.0,69.0,29.84,NNW,328,3.0,5.0,83,0.00,,,0.39,,2013-08-02 23:12:00,
2013-08-02 19:22:00,74.0,70.0,29.84,NNW,333,0.0,4.0,86,0.00,,,0.39,,2013-08-02 23:22:00,
2013-08-02 19:32:00,74.0,70.0,29.85,NW,312,0.0,4.0,87,0.00,,,0.39,,2013-08-02 23:32:00,
2013-08-02 19:43:00,74.0,70.0,29.85,NW,312,0.0,4.0,87,0.00,,,0.39,,2013-08-02 23:43:00,
2013-08-02 19:53:00,73.0,69.0,29.86,NW,312,0.0,1.0,88,0.00,,,0.39,,2013-08-02 23:53:00,
2013-08-02 20:02:00,73.0,69.0,29.86,NW,312,0.0,0.0,87,0.00,,,0.39,,2013-08-03 00:02:00,
2013-08-02 20:12:00,73.0,69.0,29.86,NW,312,0.0,0.0,87,0.00,,,0.39,,2013-08-03 00:12:00,
2013-08-02 20:22:00,73.0,69.0,29.86,NW,312,0.0,0.0,88,0.00,,,0.39,,2013-08-03 00:22:00,
2013-08-02 20:33:00,72.0,69.0,29.86,NW,312,0.0,2.0,89,0.00,,,0.39,,2013-08-03 00:33:00,
2013-08-02 20:43:00,72.0,69.0,29.86,NW,312,0.0,2.0,89,0.00,,,0.39,,2013-08-03 00:43:00,
2013-08-02 20:52:00,72.0,69.0,29.87,NW,312,0.0,0.0,90,0.00,,,0.39,,2013-08-03 00:52:00,
2013-08-02 21:03:00,71.0,68.0,29.88,NW,312,0.0,0.0,91,0.00,,,0.39,,2013-08-03 01:03:00,
2013-08-02 21:12:00,71.0,68.0,29.88,NW,312,0.0,0.0,91,0.00,,,0.39,,2013-08-03 01:12:00,
2013-08-02 21:22:00,71.0,69.0,29.89,NW,312,0.0,1.0,93,0.00,,,0.39,,2013-08-03 01:22:00,
2013-08-02 21:32:00,71.0,69.0,29.89,SSE,148,0.0,1.0,93,0.00,,,0.39,,2013-08-03 01:32:00,
2013-08-02 21:42:00,71.0,69.0,29.89,SSE,148,0.0,1.0,93,0.00,,,0.39,,2013-08-03 01:42:00,
2013-08-02 21:53:00,70.0,68.0,29.88,SE,139,0.0,1.0,94,0.00,,,0.39,,2013-08-03 01:53:00,
2013-08-02 22:02:00,70.0,68.0,29.89,SE,139,0.0,0.0,94,0.00,,,0.39,,2013-08-03 02:02:00,
2013-08-02 22:12:00,70.0,68.0,29.89,SE,139,0.0,0.0,94,0.00,,,0.39,,2013-08-03 02:12:00,
2013-08-02 22:22:00,70.0,68.0,29.89,SE,139,0.0,0.0,95,0.00,,,0.39,,2013-08-03 02:22:00,
2013-08-02 22:32:00,70.0,68.0,29.90,SE,139,0.0,0.0,94,0.00,,,0.39,,2013-08-03 02:32:00,
2013-08-02 22:43:00,70.0,68.0,29.90,SE,139,0.0,0.0,94,0.00,,,0.39,,2013-08-03 02:43:00,
2013-08-02 22:53:00,69.0,67.0,29.90,SE,139,0.0,0.0,94,0.00,,,0.39,,2013-08-03 02:53:00,
2013-08-02 23:02:00,69.0,67.0,29.90,SE,139,0.0,0.0,94,0.00,,,0.39,,2013-08-03 03:02:00,
2013-08-02 23:12:00,68.0,66.0,29.90,SE,139,0.0,0.0,93,0.00,,,0.39,,2013-08-03 03:12:00,
2013-08-02 23:22:00,68.0,66.0,29.90,SE,139,0.0,0.0,94,0.00,,,0.39,,2013-08-03 03:22:00,
2013-08-02 23:43:00,67.0,65.0,29.89,SE,139,0.0,0.0,93,0.00,,,0.39,,2013-08-03 03:43:00,
2013-08-02 23:53:00,67.0,65.0,29.89,SE,139,0.0,0.0,94,0.00,,,0.39,,2013-08-03 03:53:00,